Regional Weather Roundup
Issued by NWS

Home | Current Version | Previous Version | Graphics & Text | Print | Product List | Glossary Off
Versions: 1 2 3 4 5 6 7 8 9 10 11 12 13 14 15 16 17 18 19 20 21 22 23 24 25 26 27

000
ASUS43 KDMX 162107
RWRIA

WEATHER ROUNDUP FOR IOWA
NATIONAL WEATHER SERVICE DES MOINES IA
400 PM CDT WED APR 16 2014

NOTE: "FAIR" INDICATES FEW OR NO CLOUDS BELOW 12,000 FEET WITH NO
SIGNIFICANT WEATHER AND/OR OBSTRUCTIONS TO VISIBILITY.

* - THESE STATIONS ARE NOT NWS STATIONS...THUS NOT UNDER NWS
QUALITY CONTROL.  THEY ALSO DO NOT REPORT WEATHER SUCH
AS PRECIPITATION OR FOG.

IAZ001>003-012>014-020>022-031>034-043>046-162200-
   NORTHWEST IOWA

CITY           SKY/WX    TMP DP  RH WIND       PRES   REMARKS
CARROLL *      CLOUDY    61  32  33 S31G39    29.68F
CHEROKEE *     PTSUNNY   61  29  29 SW18G28   29.65F
DENISON *      PTSUNNY   64  27  24 SW24G36   29.65F
LE MARS *      CLOUDY    48  36  61 W24G33    29.69R
ORANGE CITY *  CLOUDY    54  28  37 SW9       29.67F
SHELDON *      PTSUNNY   52  34  50 SW7G15    29.69R
SIOUX CITY     LGT RAIN  48  33  56 NW31G40   29.69R
SPENCER        CLOUDY    58  29  33 SW15G28   29.68F
STORM LAKE *   PTSUNNY   63  27  25 S28G40    29.65F
$$

IAZ055>058-069>071-079>083-090>094-162200-
   SOUTHWEST IOWA

CITY           SKY/WX    TMP DP  RH WIND       PRES   REMARKS
ATLANTIC *     PTSUNNY   63  32  31 S31G41    29.68F
AUDUBON *      MOSUNNY   64  19  17 S22G37    29.70F
CLARINDA *     SUNNY     66  32  28 S30G41    29.75F
COUNCIL BLFS * MOSUNNY   66  30  26 SW30G36   29.67F
CRESTON *      PTSUNNY   64  32  29 S31G47    29.77F
HARLAN  *      MOSUNNY   66  30  26 SW36G47   29.69F
LAMONI         PTSUNNY   62  32  32 S30G40    29.81F
RED OAK *      MOSUNNY   68  30  24 SW31G44   29.71F
SHENANDOAH *   MOSUNNY   70  30  23 SW28G45   29.72S
$$

IAZ047>049-059>061-072>074-084-162200-
   CENTRAL IOWA

CITY           SKY/WX    TMP DP  RH WIND       PRES   REMARKS
AMES           CLOUDY    61  31  32 S25G37    29.78S
ANKENY *       PTSUNNY   63  32  31 S25G36    29.78F
CHARITON *     MOSUNNY   63  34  34 S30G38    29.81S
DES MOINES     PTSUNNY   63  30  28 S17G40    29.79R
GRINNELL*      CLOUDY    61  30  31 S31G39    29.82F
KNOXVILLE *    PTSUNNY   63  32  31 S26G41    29.81F
MARSHALLTOWN   CLOUDY    59  31  34 S35G41    29.79F
NEWTON *       CLOUDY    63  32  31 S32G46    29.80F
PELLA *        PTSUNNY   64  33  31 S22G33    29.84F
PERRY *        CLOUDY    63  28  26 S33G41    29.74F
$$

IAZ004>006-015-016-023>025-035-036-162200-
   NORTH CENTRAL IOWA

CITY           SKY/WX    TMP DP  RH WIND       PRES   REMARKS
ALGONA *       CLOUDY    57  30  35 S29G39    29.71F
CLARION *      CLOUDY    61  30  31 S36G45    29.74S
ESTHERVILLE    CLOUDY    55  32  41 S20G25    29.70F
FORT DODGE *   CLOUDY    61  32  33 S28G41    29.73F
MASON CITY     CLOUDY    57  32  38 S29G40    29.76F
FOREST CITY *  CLOUDY    55  34  44 S15       29.74F
IOWA FALLS *     N/A     61  33  35 S26G38    29.78F
$$

IAZ007>011-017>019-026>030-037>042-050>054-066-162200-
   NORTHEAST IOWA

CITY           SKY/WX    TMP DP  RH WIND       PRES   REMARKS
CEDAR RAPIDS   CLOUDY    56  27  32 S25G37    29.89F
CHARLES CITY * CLOUDY    55  34  44 S28G39    29.79F
CLINTON *      SUNNY     55  27  33 S26G38    30.04F
DECORAH *      CLOUDY    52  32  46 S17G33    29.85F
DUBUQUE        MOSUNNY   53  27  36 S31G40    29.96F
MONTICELLO *   MOSUNNY   55  30  38 SE26G36   29.93F
OELWEIN *      CLOUDY   N/A N/A N/A S28G37    29.85F
WATERLOO       CLOUDY    58  31  35 S21G33    29.82S
$$

IAZ064-065-067-068-078-162200-
   EAST CENTRAL IOWA

CITY           SKY/WX    TMP DP  RH WIND       PRES   REMARKS
DAVENPORT      MOSUNNY   57  27  31 S29G35    30.00F
IOWA CITY      CLOUDY    57  29  34 S26G38    29.94F
MT. PLEASANT * MOSUNNY   58  25  28 S25G33    29.95F
MUSCATINE *    MOSUNNY   59  25  27 S28G37    29.95F
QUAD CITIES    SUNNY     58  25  28 SE22G37   30.01F
$$

IAZ062-063-075>077-085>089-095>099-162200-
   SOUTHEAST IOWA

CITY           SKY/WX    TMP DP  RH WIND       PRES   REMARKS
BURLINGTON     SUNNY     57  26  30 S18G33    29.98F
FAIRFIELD *    MOSUNNY   61  28  29 S25G41    29.89F
FORT MADISON * SUNNY     57  28  33 S23G30    29.97F
KEOKUK *       SUNNY     59  27  29 S20G32    29.96F
OSKALOOSA *      N/A     59  32  36 S31G39    29.86F
CENTERVILLE *    N/A     63  32  31 S31G37    29.86S
OTTUMWA        PTSUNNY   60  30  32 S25G39    29.86F
WASHINGTON *   PTSUNNY   59  28  31 S20G38    29.93F
$$

ABBREVIATIONS USED IN REMARKS
   TC - TEMPERATURES IN CELSIUS
  WCI - WIND CHILL INDEX
   HX - HEAT INDEX
  VSB - VISIBILITY
$$




USA.gov is the U.S. government's official web portal to all federal, state and local government web resources and services.